Preview of NWS' New Version of Forecast
This preview is not operational and should not be used for support decisions.

Regional Weather Roundup (RWR)

Issued by National Weather Service (NWS)

                            
000
ASCA42 TJSJ 170510
RWRPR 
PUERTO RICO/U.S. VIRGIN ISLANDS HOURLY WEATHER ROUNDUP
NATIONAL WEATHER SERVICE SAN JUAN PR
100 AM AST SUN MAR 17 2019

PRZ001>002-007>008-010-170600-
PUERTO RICO
  
CITY           SKY/WX    TMP DP  RH WIND       PRES   REMARKS
SAN JUAN LMM   PTCLDY    75  66  73 CALM      30.05F                  
$$

VIZ001>002-170600-
U.S. VIRGIN ISLANDS
  
CITY           SKY/WX    TMP DP  RH WIND       PRES   REMARKS
CHARLOTTE AMA  CLEAR     75  68  78 CALM      30.04F                  
CHRISTIANSTED  CLEAR     72  66  83 NE5       30.04F                  
$$

HOURLY WEATHER ROUNDUP FOR THE NEWS MEDIA
  
CITY           SKY/WX    TMP DP  RH WIND       PRES   REMARKS
ORLANDO        CLOUDY    64  50  60 N7        30.12S                  
NEW YORK       MOCLDY    38  10  31 NW20G30   30.15S WCI  28          
NEWARK         FAIR      37   7  28 NW13      30.16R WCI  29          
CHICAGO        FAIR      29  22  75 SE5       30.27F WCI  24          
HARTFORD       FAIR      34  20  56 W14G23    30.03S WCI  25          
BOSTON         FAIR      37  16  42 W17G30    30.00S WCI  27          
DALLAS         PTCLDY    47  33  58 CALM      30.35S                  
PHILADELPHIA   FAIR      38  13  35 NW12      30.21S WCI  30          
LOS ANGELES    CLEAR     64  45  49 SE5       29.99R                  
WASHINGTON DC  CLEAR     39  20  46 NW8       30.22F WCI  33